Weather History for Howell, MI

Change the Weather History Date:

Friday, March 22, 2013

  Actual Average Record
Temperature  
Mean Temperature 32 °F -  
Max Temperature 37 °F 44 °F 82 °F (2012)
Min Temperature 26 °F 28 °F 12 °F (2004)
Degree Days  
Heating Degree Days 34    
Moisture  
Dew Point 18 °F    
Average Humidity 61    
Maximum Humidity 73    
Minimum Humidity 47    
Precipitation  
Precipitation 0.00 in - - ()
Sea Level Pressure  
Sea Level Pressure 29.95 in    
Wind  
Wind Speed 10 mph (WNW)    
Max Wind Speed 15 mph    
Max Gust Speed 23 mph    
Visibility 10 miles    
Events Snow    
Averages and records for this station are not official NWS values.
T = Trace of Precipitation, MM = Missing Value Source: NWS Daily Summary

Daily Weather History Graph

Daily Weather History Graph

Search for Another Location

Airport:

Trip Planner

Search our weather history database for the weather conditions in past years. The results will help you decide how hot, cold, wet, or windy it might be!

Date:

Astronomy

Mar. 22, 2013 Rise Set
Actual Time 7:35 AM EDT 7:50 PM EDT
Civil Twilight 7:07 AM EDT 8:19 PM EDT
Nautical Twilight 6:34 AM EDT 8:52 PM EDT
Astronomical Twilight 6:00 AM EDT 9:26 PM EDT
Moon 3:11 PM EDT (3/22) 4:40 AM EDT (3/22)
Length of Visible Light 13h 11m
Length of Day
12h 15m
Waxing Gibbous, 77% of the Moon is Illuminated
Mar 22
Waxing Gibbous
Mar 27
Full
Apr 3
Last Quarter
Apr 10
New
Apr 18
First Quarter

Hourly Weather History & Observations

Time (EDT) Temp. Windchill Dew Point Humidity Pressure Visibility Wind Dir Wind Speed Gust Speed Precip Events Conditions
12:14 AM 26.6 °F 16.8 °F 17.6 °F 69% 29.91 in 10.0 mi WNW 10.4 mph 17.3 mph N/A Snow Light Snow
12:34 AM 26.6 °F 15.7 °F 17.6 °F 69% 29.91 in 10.0 mi West 12.7 mph - N/A   Overcast
12:55 AM 26.6 °F 16.2 °F 17.4 °F 68% 29.91 in 10.0 mi WNW 11.5 mph 18.4 mph N/A   Overcast
1:14 AM 26.6 °F 14.7 °F 17.2 °F 68% 29.91 in 10.0 mi West 15.0 mph - N/A   Overcast
1:34 AM 26.6 °F 16.8 °F 17.1 °F 67% 29.91 in 10.0 mi WNW 10.4 mph - N/A   Overcast
1:55 AM 26.6 °F 16.8 °F 17.2 °F 68% 29.91 in 10.0 mi WNW 10.4 mph 16.1 mph N/A   Overcast
2:14 AM 26.6 °F 18.2 °F 15.4 °F 63% 29.91 in 10.0 mi NW 8.1 mph 19.6 mph N/A   Overcast
2:34 AM 26.4 °F 14.5 °F 14.9 °F 62% 29.92 in 10.0 mi NW 15.0 mph 23.0 mph N/A   Overcast
2:55 AM 26.4 °F 16.0 °F 15.1 °F 62% 29.92 in 10.0 mi WNW 11.5 mph 18.4 mph N/A   Overcast
3:14 AM 26.2 °F 15.2 °F 16.0 °F 65% 29.92 in 10.0 mi WNW 12.7 mph 17.3 mph N/A   Overcast
3:34 AM 26.4 °F 15.5 °F 15.6 °F 64% 29.92 in 10.0 mi WNW 12.7 mph - N/A   Overcast
3:55 AM 26.4 °F 17.3 °F 15.4 °F 63% 29.92 in 10.0 mi WNW 9.2 mph - N/A   Overcast
4:14 AM 26.4 °F 15.5 °F 15.6 °F 64% 29.92 in 10.0 mi NW 12.7 mph 17.3 mph N/A   Overcast
4:34 AM 26.4 °F 18.0 °F 15.4 °F 63% 29.92 in 10.0 mi NW 8.1 mph 18.4 mph N/A   Overcast
4:54 AM 26.4 °F 16.6 °F 16.0 °F 65% 29.92 in 10.0 mi NW 10.4 mph - N/A   Overcast
5:14 AM 26.4 °F 18.0 °F 16.2 °F 65% 29.92 in 10.0 mi NW 8.1 mph - N/A   Overcast
5:35 AM 26.4 °F 18.0 °F 15.8 °F 64% 29.92 in 10.0 mi NW 8.1 mph 19.6 mph N/A   Overcast
5:54 AM 26.4 °F 17.3 °F 16.0 °F 65% 29.93 in 10.0 mi NW 9.2 mph - N/A   Overcast
6:14 AM 26.2 °F 17.1 °F 16.2 °F 66% 29.93 in 10.0 mi NW 9.2 mph - N/A   Overcast
6:35 AM 26.2 °F 15.2 °F 16.3 °F 66% 29.93 in 10.0 mi NW 12.7 mph 17.3 mph N/A   Overcast
6:54 AM 26.2 °F 15.8 °F 15.8 °F 65% 29.95 in 10.0 mi NW 11.5 mph 18.4 mph N/A   Overcast
7:14 AM 26.2 °F 15.8 °F 15.8 °F 65% 29.95 in 10.0 mi NW 11.5 mph 23.0 mph N/A   Overcast
7:34 AM 26.2 °F 16.4 °F 15.6 °F 64% 29.95 in 10.0 mi NNW 10.4 mph - N/A   Overcast
7:54 AM 26.2 °F 17.8 °F 15.8 °F 65% 29.96 in 10.0 mi NW 8.1 mph - N/A   Overcast
8:15 AM 26.6 °F 20.0 °F 16.3 °F 65% 29.96 in 10.0 mi NW 5.8 mph - N/A   Overcast
8:34 AM 26.6 °F 18.2 °F 16.7 °F 66% 29.96 in 10.0 mi NW 8.1 mph - N/A   Overcast
8:54 AM 27.1 °F 18.9 °F 17.1 °F 66% 29.96 in 10.0 mi NW 8.1 mph - N/A   Overcast
9:15 AM 27.5 °F 19.3 °F 17.6 °F 66% 29.95 in 10.0 mi NW 8.1 mph - N/A   Overcast
9:34 AM 28.0 °F 20.0 °F 18.0 °F 66% 29.95 in 10.0 mi NW 8.1 mph - N/A   Overcast
9:54 AM 28.2 °F 19.5 °F 18.0 °F 65% 29.95 in 10.0 mi NW 9.2 mph - N/A   Overcast
10:15 AM 29.3 °F 21.5 °F 18.3 °F 64% 29.95 in 10.0 mi WNW 8.1 mph - N/A   Overcast
10:34 AM 29.3 °F 19.6 °F 17.8 °F 62% 29.95 in 10.0 mi NW 11.5 mph - N/A   Overcast
10:54 AM 29.8 °F 21.5 °F 17.8 °F 61% 29.95 in 10.0 mi NW 9.2 mph - N/A   Overcast
11:15 AM 30.2 °F 20.8 °F 17.8 °F 60% 29.95 in 10.0 mi WNW 11.5 mph - N/A   Overcast
11:34 AM 30.9 °F 22.8 °F 18.1 °F 59% 29.95 in 10.0 mi NW 9.2 mph - N/A   Overcast
11:55 AM 31.1 °F 22.4 °F 18.3 °F 59% 29.96 in 10.0 mi NW 10.4 mph - N/A   Overcast
12:15 PM 30.9 °F 22.8 °F 17.8 °F 58% 29.96 in 10.0 mi West 9.2 mph - N/A   Overcast
12:34 PM 31.6 °F 24.4 °F 17.8 °F 57% 29.96 in 10.0 mi WNW 8.1 mph - N/A   Overcast
12:55 PM 32.0 °F 22.1 °F 18.0 °F 56% 29.96 in 10.0 mi West 13.8 mph 18.4 mph N/A   Overcast
1:14 PM 32.0 °F 24.8 °F 18.0 °F 56% 29.96 in 10.0 mi WNW 8.1 mph - N/A   Overcast
1:34 PM 32.4 °F 24.0 °F 17.8 °F 55% 29.96 in 10.0 mi West 10.4 mph - N/A   Overcast
1:55 PM 33.3 °F 24.6 °F 18.3 °F 54% 29.96 in 10.0 mi West 11.5 mph 16.1 mph N/A   Overcast
2:14 PM 34.0 °F 26.0 °F 18.0 °F 52% 29.96 in 10.0 mi West 10.4 mph 16.1 mph N/A   Mostly Cloudy
2:34 PM 34.7 °F 28.1 °F 18.3 °F 51% 29.96 in 10.0 mi West 8.1 mph 11.5 mph N/A   Overcast
2:55 PM 34.7 °F 28.1 °F 19.4 °F 54% 29.95 in 10.0 mi West 8.1 mph - N/A   Mostly Cloudy
3:14 PM 36.3 °F 27.1 °F 20.5 °F 53% 29.95 in 10.0 mi WSW 15.0 mph 19.6 mph N/A   Mostly Cloudy
3:34 PM 36.7 °F 28.4 °F 20.1 °F 51% 29.95 in 10.0 mi West 12.7 mph 16.1 mph N/A   Mostly Cloudy
3:55 PM 36.9 °F 28.7 °F 20.3 °F 51% 29.94 in 10.0 mi WSW 12.7 mph 19.6 mph N/A   Mostly Cloudy
4:14 PM 37.2 °F 30.6 °F 20.5 °F 51% 29.94 in 10.0 mi West 9.2 mph - N/A   Scattered Clouds
4:34 PM 37.0 °F 29.3 °F 20.1 °F 50% 29.93 in 10.0 mi WSW 11.5 mph - N/A   Scattered Clouds
4:55 PM 37.2 °F 31.2 °F 19.4 °F 49% 29.93 in 10.0 mi West 8.1 mph 17.3 mph N/A   Clear
5:14 PM 37.8 °F 30.7 °F 19.6 °F 48% 29.93 in 10.0 mi WNW 10.4 mph 16.1 mph N/A   Clear
5:35 PM 37.6 °F 30.5 °F 19.0 °F 47% 29.93 in 10.0 mi WNW 10.4 mph - N/A   Scattered Clouds
5:54 PM 37.9 °F 32.1 °F 19.9 °F 48% 29.93 in 10.0 mi WNW 8.1 mph - N/A   Scattered Clouds
6:14 PM 37.6 °F 30.5 °F 19.4 °F 48% 29.93 in 10.0 mi West 10.4 mph - N/A   Scattered Clouds
6:35 PM 36.9 °F 29.1 °F 19.0 °F 49% 29.94 in 10.0 mi WNW 11.5 mph - N/A   Clear
6:54 PM 36.1 °F 29.9 °F 19.2 °F 50% 29.95 in 10.0 mi West 8.1 mph - N/A   Clear
7:14 PM 35.8 °F 28.3 °F 19.4 °F 51% 29.95 in 10.0 mi West 10.4 mph - N/A   Scattered Clouds
7:35 PM 35.1 °F 27.9 °F 19.6 °F 53% 29.96 in 10.0 mi West 9.2 mph - N/A   Mostly Cloudy
7:54 PM 34.0 °F 28.8 °F 19.8 °F 56% 29.96 in 10.0 mi West 5.8 mph - N/A   Mostly Cloudy
8:14 PM 32.2 °F 26.7 °F 20.1 °F 61% 29.98 in 10.0 mi West 5.8 mph - N/A   Scattered Clouds
8:35 PM 31.6 °F 26.0 °F 20.1 °F 62% 29.98 in 10.0 mi West 5.8 mph - N/A   Clear
8:54 PM 31.8 °F 25.4 °F 21.2 °F 65% 29.98 in 10.0 mi West 6.9 mph - N/A   Clear
9:14 PM 31.5 °F 24.9 °F 21.2 °F 66% 29.99 in 10.0 mi West 6.9 mph - N/A   Clear
9:35 PM 30.2 °F 23.4 °F 21.2 °F 69% 29.99 in 10.0 mi WSW 6.9 mph - N/A   Clear
9:54 PM 30.6 °F 23.8 °F 21.6 °F 69% 30.00 in 10.0 mi West 6.9 mph - N/A   Clear
10:14 PM 29.3 °F 24.3 °F 21.2 °F 72% 30.00 in 10.0 mi West 4.6 mph - N/A   Clear
10:35 PM 29.5 °F 22.5 °F 21.2 °F 71% 30.00 in 10.0 mi West 6.9 mph - N/A   Clear
10:54 PM 29.7 °F 23.7 °F 21.0 °F 70% 30.00 in 10.0 mi West 5.8 mph - N/A   Clear
11:15 PM 28.8 °F 22.6 °F 20.3 °F 71% 30.00 in 10.0 mi West 5.8 mph - N/A   Clear
11:34 PM 27.9 °F 21.5 °F 20.1 °F 73% 30.00 in 10.0 mi West 5.8 mph - N/A   Clear
11:54 PM 28.2 °F 22.0 °F 20.1 °F 72% 30.00 in 10.0 mi West 5.8 mph - N/A   Clear